Regional Weather Roundup
Issued by NWS

Home | Current Version | Previous Version | Graphics & Text | Print | Product List | Glossary On
Versions: 1 2 3 4 5 6 7 8 9 10 11 12 13 14 15 16 17 18 19 20 21 22 23 24 25 26 27 28 29 30 31 32 33 34 35 36 37 38 39 40 41 42 43 44 45 46 47 48 49 50
992
ASUS44 KJAN 012210
RWRMS

MISSISSIPPI HOURLY WEATHER ROUNDUP
NATIONAL WEATHER SERVICE JACKSON MS
500 PM CDT WED APR 01 2015

NOTE: "FAIR: INDICATES FEW OR NO CLOUDS BELOW 12,000 FEET WITH NO
SIGNIFICANT WEATHER AND/OR OBSTRUCTIONS TO VISIBILITY.

MSZ001>002-007>008-010>013-018>021-025>028-034>036-012300-
NORTHWEST MISSISSIPPI

CITY           SKY/WX    TMP DP  RH WIND       PRES   REMARKS
CLARKSDALE     PTSUNNY   75  66  73 SE14      29.94F
CLEVELAND      FAIR      78  64  63 S13       29.93F
GREENWOOD      PTSUNNY   77  60  55 S14       29.96F
GREENVILLE     CLOUDY    76  60  57 S15       29.93F
OLIVE BRANCH   PTSUNNY   70  64  83 S14       29.94R
OXFORD         FAIR      75  59  57 S10G20    29.97F
TUNICA         CLOUDY    77  64  65 S9        29.94F
$$

MSZ003>006-009-014>017-022>024-029>033-037>039-012300-
NORTHEAST MISSISSIPPI

CITY           SKY/WX    TMP DP  RH WIND       PRES   REMARKS
COLUMBUS AFB   MOSUNNY   81  61  50 SW8       29.97F
CORINTH        FAIR      79  59  50 SE12      29.96F
GOLDN TRIANGLE MOSUNNY   79  61  53 SW12      29.98F
STARKVILLE     MOCLDY    79  61  53 S7        29.99S
TUPELO         MOSUNNY   77  60  55 SW13      29.97F
$$

MSZ040-058-012300-
CENTRAL MISSISSIPPI

CITY           SKY/WX    TMP DP  RH WIND       PRES   REMARKS
JACKSON INTL   CLOUDY    78  55  44 S9        29.98F
JACKSON HAWKNS CLOUDY    80  56  43 S12       29.98F
MERIDIAN KEY   PTSUNNY   77  56  48 SW7       30.01F
MERIDIAN NAS   PTSUNNY   78  59  51 S7        30.01S
RAYMOND        FAIR      81  75  83 SW6       29.97F
VICKSBURG      PTSUNNY   80  55  42 S13       29.96F
$$

MSZ059>079-012300-
SOUTH MISSISSIPPI

CITY           SKY/WX    TMP DP  RH WIND       PRES   REMARKS
BROOKHAVEN     FAIR     N/A N/A N/A S13G18    30.01S
HATTIESBURG    CLOUDY    81  56  42 SW14      30.02S
MCCOMB         CLOUDY    79  59  50 S9        30.00F
NATCHEZ        PTSUNNY   79  57  47 S8        29.98F
PINE BELT      PTSUNNY   79  45  29 S8        30.03S
$$

MSZ080>082-012300-
COASTAL MISSISSIPPI

CITY           SKY/WX    TMP DP  RH WIND       PRES   REMARKS
BAY ST LOUIS   MOSUNNY   75  63  64 MISG      30.04S
BILOXI         CLOUDY    74  67  77 S10       30.05R
PASCAGOULA     PTSUNNY   76  64  66 S8        30.05F
GULFPORT       CLOUDY    75  66  73 S10       30.04S
$$



USA.gov is the U.S. government's official web portal to all federal, state and local government web resources and services.